AFL217 UIII-ZSPD

Flight info

Callsign AFL217
Flight time N/A
Altitude 35000
Route IDENI5D IDENI A815 SERNA/K0848S1070 Y520 POLHO W33 NUVPU W52 URGOM/K0845S1100 W54 VAGNU W49 HUR/K0845S1130 B339 SOTMU/K0848S1100 W98 ELKUR W40 DOXAB/K0848S1130 W40 YQG/K0856S1100 W142 DALIM/K0854S1130 A593 VMB W161 SASAN SAS81A
Aircraft B738/M-SDE2E3FGHIRWXY/LB1

Departure

Time N/A
Airport Irkutsk International Airport (UIII)

Arrival

Time 2026-05-04 20:49
Airport Shanghai Pudong International Airport (ZSPD)
Time Latitude Longitude Altitude Speed Heading
2026-05-04 20:21 31.88182 120.07436 35024 ft 488 kts 150°
2026-05-04 20:22 31.82684 120.12119 35023 ft 488 kts 150°
2026-05-04 20:22 31.79916 120.14465 34684 ft 494 kts 150°
2026-05-04 20:22 31.77123 120.16835 34081 ft 494 kts 150°
2026-05-04 20:23 31.74347 120.19206 33329 ft 492 kts 150°
2026-05-04 20:23 31.71566 120.21550 32588 ft 491 kts 150°
2026-05-04 20:23 31.68777 120.23861 31853 ft 489 kts 150°
2026-05-04 20:23 31.65991 120.26154 31110 ft 489 kts 150°
2026-05-04 20:24 31.63232 120.28432 30340 ft 489 kts 149°
2026-05-04 20:24 31.60501 120.30837 29444 ft 496 kts 141°
2026-05-04 20:24 31.58360 120.34043 28754 ft 504 kts 122°
2026-05-04 20:24 31.56990 120.37751 28145 ft 503 kts 111°
2026-05-04 20:25 31.55880 120.41605 27566 ft 496 kts 110°
2026-05-04 20:25 31.54831 120.45435 26980 ft 491 kts 109°
2026-05-04 20:25 31.53788 120.49222 26407 ft 485 kts 110°
2026-05-04 20:25 31.52732 120.52950 25844 ft 479 kts 110°
2026-05-04 20:26 31.51665 120.56613 25289 ft 474 kts 110°
2026-05-04 20:26 31.50585 120.60249 24735 ft 469 kts 110°
2026-05-04 20:26 31.49507 120.63835 24185 ft 464 kts 110°
2026-05-04 20:26 31.48436 120.67382 23640 ft 460 kts 110°
2026-05-04 20:27 31.47371 120.70900 22984 ft 456 kts 110°
2026-05-04 20:27 31.46315 120.74389 22395 ft 450 kts 110°
2026-05-04 20:27 31.45277 120.77827 21847 ft 445 kts 110°
2026-05-04 20:27 31.44264 120.81181 21296 ft 440 kts 110°
2026-05-04 20:28 31.43248 120.84542 20758 ft 435 kts 110°
2026-05-04 20:28 31.42240 120.87870 20214 ft 431 kts 110°
2026-05-04 20:28 31.41245 120.91149 19697 ft 427 kts 110°
2026-05-04 20:28 31.40254 120.94409 19170 ft 423 kts 110°
2026-05-04 20:29 31.39266 120.97648 18650 ft 420 kts 110°
2026-05-04 20:29 31.38283 121.00855 18074 ft 418 kts 110°
2026-05-04 20:29 31.37311 121.04040 17498 ft 414 kts 110°
2026-05-04 20:29 31.36349 121.07206 16952 ft 410 kts 109°
2026-05-04 20:30 31.35292 121.10280 16388 ft 405 kts 120°
2026-05-04 20:30 31.33554 121.12818 15932 ft 396 kts 138°
2026-05-04 20:30 31.31499 121.14936 15436 ft 391 kts 140°
2026-05-04 20:30 31.29434 121.16995 14922 ft 388 kts 140°
2026-05-04 20:31 31.27383 121.19031 14416 ft 385 kts 140°
2026-05-04 20:31 31.25375 121.21035 13901 ft 383 kts 140°
2026-05-04 20:31 31.23364 121.23053 13348 ft 380 kts 140°
2026-05-04 20:31 31.21366 121.25064 12815 ft 376 kts 139°
2026-05-04 20:32 31.19395 121.27054 12299 ft 372 kts 139°
2026-05-04 20:32 31.17451 121.29022 11817 ft 369 kts 139°
2026-05-04 20:32 31.15529 121.30973 11334 ft 365 kts 139°
2026-05-04 20:32 31.13720 121.33032 10995 ft 358 kts 125°
2026-05-04 20:33 31.12688 121.35600 10854 ft 344 kts 104°
2026-05-04 20:33 31.12359 121.38313 10720 ft 332 kts 88°
2026-05-04 20:33 31.12417 121.40955 10575 ft 321 kts 85°
2026-05-04 20:33 31.12515 121.43515 10444 ft 310 kts 85°
2026-05-04 20:34 31.12605 121.45991 10320 ft 301 kts 85°
2026-05-04 20:34 31.12677 121.48396 10199 ft 291 kts 85°
2026-05-04 20:34 31.12736 121.50720 10076 ft 282 kts 85°
2026-05-04 20:34 31.12788 121.52925 9850 ft 279 kts 85°
2026-05-04 20:35 31.12828 121.55185 9696 ft 271 kts 85°
2026-05-04 20:35 31.12865 121.57321 9583 ft 262 kts 85°
2026-05-04 20:35 31.12905 121.59412 9466 ft 254 kts 84°
2026-05-04 20:35 31.12947 121.61430 9354 ft 244 kts 84°
2026-05-04 20:36 31.12992 121.63363 9284 ft 231 kts 83°
2026-05-04 20:36 31.12985 121.65200 9116 ft 225 kts 95°
2026-05-04 20:36 31.12349 121.66814 8952 ft 219 kts 128°
2026-05-04 20:36 31.11141 121.67894 8738 ft 221 kts 151°
2026-05-04 20:37 31.09721 121.68555 8540 ft 219 kts 157°
2026-05-04 20:37 31.08267 121.69127 8295 ft 221 kts 158°
2026-05-04 20:37 31.06808 121.69685 8049 ft 219 kts 159°
2026-05-04 20:37 31.05366 121.70234 7793 ft 217 kts 158°
2026-05-04 20:38 31.03949 121.70780 7538 ft 212 kts 158°
2026-05-04 20:38 31.02558 121.71322 7314 ft 209 kts 158°
2026-05-04 20:38 31.01182 121.71862 7094 ft 209 kts 158°
2026-05-04 20:38 30.99802 121.72406 6884 ft 209 kts 157°
2026-05-04 20:39 30.98428 121.72953 6658 ft 209 kts 158°
2026-05-04 20:39 30.97042 121.73463 6444 ft 208 kts 159°
2026-05-04 20:39 30.95671 121.73943 6223 ft 208 kts 159°
2026-05-04 20:39 30.94283 121.74429 6007 ft 208 kts 159°
2026-05-04 20:40 30.92895 121.74919 5786 ft 207 kts 160°
2026-05-04 20:40 30.91517 121.75410 5574 ft 207 kts 160°
2026-05-04 20:40 30.90144 121.75904 5354 ft 206 kts 160°
2026-05-04 20:40 30.88777 121.76402 5136 ft 205 kts 160°
2026-05-04 20:41 30.87420 121.76897 4923 ft 204 kts 156°
2026-05-04 20:41 30.86272 121.77806 4712 ft 203 kts 123°
2026-05-04 20:41 30.85759 121.79312 4486 ft 202 kts 91°
2026-05-04 20:41 30.85865 121.80924 4259 ft 200 kts 70°
2026-05-04 20:42 30.86330 121.82442 4026 ft 199 kts 67°
2026-05-04 20:42 30.86787 121.83951 3839 ft 197 kts 68°
2026-05-04 20:42 30.87236 121.85458 3649 ft 199 kts 68°
2026-05-04 20:42 30.87690 121.86993 3447 ft 201 kts 69°
2026-05-04 20:43 30.88134 121.88498 3230 ft 195 kts 70°
2026-05-04 20:43 30.88775 121.89857 2994 ft 191 kts 37°
2026-05-04 20:43 30.89955 121.90417 2776 ft 186 kts
2026-05-04 20:43 30.91257 121.90395 2592 ft 189 kts 343°
2026-05-04 20:44 30.92537 121.89996 2398 ft 192 kts 336°
2026-05-04 20:44 30.93804 121.89522 2199 ft 190 kts 335°
2026-05-04 20:44 30.95054 121.89042 2036 ft 188 kts 335°
2026-05-04 20:44 30.96245 121.88593 2024 ft 173 kts 334°
2026-05-04 20:45 30.97378 121.88162 1954 ft 169 kts 333°
2026-05-04 20:45 30.98481 121.87736 1958 ft 167 kts 333°
2026-05-04 20:45 30.99589 121.87320 1969 ft 168 kts 333°
2026-05-04 20:45 31.00703 121.86901 1973 ft 168 kts 333°
2026-05-04 20:46 31.01817 121.86480 1945 ft 169 kts 333°
2026-05-04 20:46 31.02941 121.86056 1890 ft 169 kts 333°
2026-05-04 20:46 31.04070 121.85628 1762 ft 172 kts 333°
2026-05-04 20:46 31.05204 121.85201 1543 ft 170 kts 333°
2026-05-04 20:47 31.06323 121.84779 1316 ft 168 kts 333°
2026-05-04 20:47 31.07432 121.84360 1095 ft 167 kts 333°
2026-05-04 20:47 31.08532 121.83947 878 ft 165 kts 333°
2026-05-04 20:47 31.09601 121.83510 672 ft 161 kts 327°
2026-05-04 20:48 31.10660 121.83106 458 ft 158 kts 336°
2026-05-04 20:48 31.11362 121.82867 375 ft 159 kts 333°
2026-05-04 20:48 31.12407 121.82487 142 ft 156 kts 332°
2026-05-04 20:48 31.13721 121.81969 12 ft 137 kts 350°
2026-05-04 20:49 31.14444 121.81721 10 ft 48 kts 339°
2026-05-04 20:49 31.14742 121.81581 9 ft 46 kts 326°
2026-05-04 20:49 31.14878 121.81414 10 ft 0 kts 277°
2026-05-04 20:51 31.14879 121.81403 10 ft 2 kts 272°
2026-05-04 20:51 31.14875 121.81369 10 ft 10 kts 258°
2026-05-04 20:51 31.14850 121.81276 11 ft 13 kts 252°
2026-05-04 20:51 31.14824 121.81181 12 ft 12 kts 252°
2026-05-04 20:52 31.14800 121.81087 12 ft 12 kts 265°
2026-05-04 20:52 31.14853 121.81022 11 ft 12 kts 296°
2026-05-04 20:52 31.14835 121.80934 12 ft 9 kts 249°
2026-05-04 20:52 31.14831 121.80920 11 ft 0 kts 252°